Plainview, TX

10:14 AM CDT on August 22, 2017 (GMT -0500)
Hale County

Weather History for KPVW - January, 2013

Change the Weather History Date:

Friday, January 11, 2013

  Actual Average Record
Temperature  
Mean Temperature 48 °F -  
Max Temperature 62 °F 45 °F 77 °F (2017)
Min Temperature 33 °F 23 °F -7 °F (1918)
Degree Days  
Heating Degree Days 18    
Moisture  
Dew Point 34 °F    
Average Humidity 68    
Maximum Humidity 93    
Minimum Humidity 31    
Precipitation  
Precipitation 0.00 in - - ()
Sea Level Pressure  
Sea Level Pressure 29.74 in    
Wind  
Wind Speed 13 mph (WSW)    
Max Wind Speed 30 mph    
Max Gust Speed 43 mph    
Visibility 10 miles    
Events      
Averages and records for this station are not official NWS values.
T = Trace of Precipitation, MM = Missing Value Source: NWS Daily Summary

Daily Weather History Graph

Daily Weather History Graph

Search for Another Location

Airport or City:

Trip Planner

Search our weather history database for the weather conditions in past years. The results will help you decide how hot, cold, wet, or windy it might be!

Date:

Astronomy

Jan. 11, 2013 Rise Set
Actual Time 7:53 AM CST 5:57 PM CST
Civil Twilight 7:25 AM CST 6:24 PM CST
Nautical Twilight 6:54 AM CST 6:55 PM CST
Astronomical Twilight 6:24 AM CST 7:25 PM CST
Moon 7:29 AM CST (1/11) 6:14 PM CST (1/11)
Length of Visible Light 10h 58m
Length of Day
10h 03m
Waning Crescent, 0% of the Moon is Illuminated
Jan 11
Waning Crescent
Jan 11
New
Jan 18
First Quarter
Jan 26
Full
Feb 3
Last Quarter

Hourly Weather History & Observations

Time (CST) Temp. Windchill Dew Point Humidity Pressure Visibility Wind Dir Wind Speed Gust Speed Precip Events Conditions
12:15 AM 41.0 °F 34.3 °F 35.6 °F 81% 29.79 in 10.0 mi SW 11.5 mph - N/A   Clear
12:35 AM 39.2 °F 31.6 °F 35.6 °F 87% 29.79 in 10.0 mi SW 12.7 mph - N/A   Clear
12:55 AM 39.2 °F 32.5 °F 35.6 °F 87% 29.78 in 10.0 mi SW 10.4 mph - N/A   Clear
1:15 AM 39.2 °F 32.5 °F 35.6 °F 87% 29.79 in 10.0 mi SW 10.4 mph - N/A   Clear
1:35 AM 39.2 °F 32.0 °F 35.6 °F 87% 29.77 in 10.0 mi SW 11.5 mph - N/A   Clear
1:55 AM 41.0 °F 35.2 °F 33.8 °F 76% 29.78 in 10.0 mi SW 9.2 mph - N/A   Clear
2:15 AM 41.0 °F 34.3 °F 33.8 °F 76% 29.78 in 10.0 mi SSW 11.5 mph - N/A   Clear
2:35 AM 39.2 °F 33.6 °F 33.8 °F 81% 29.77 in 10.0 mi SSW 8.1 mph - N/A   Clear
2:55 AM 39.2 °F 34.2 °F 35.6 °F 87% 29.76 in 10.0 mi SSW 6.9 mph - N/A   Clear
3:15 AM 37.4 °F 32.1 °F 33.8 °F 87% 29.76 in 10.0 mi SSW 6.9 mph - N/A   Clear
3:35 AM 35.6 °F 29.9 °F 33.8 °F 93% 29.75 in 10.0 mi SSW 6.9 mph - N/A   Clear
3:55 AM 35.6 °F 30.7 °F 33.8 °F 93% 29.73 in 10.0 mi SW 5.8 mph - N/A   Clear
4:15 AM 35.6 °F 29.2 °F 33.8 °F 93% 29.72 in 10.0 mi SSW 8.1 mph - N/A   Clear
4:35 AM 37.4 °F 30.3 °F 33.8 °F 87% 29.72 in 10.0 mi SSW 10.4 mph - N/A   Clear
4:55 AM 41.0 °F 33.1 °F 33.8 °F 76% 29.69 in 10.0 mi SSW 15.0 mph 20.7 mph N/A   Clear
5:15 AM 41.0 °F 33.1 °F 35.6 °F 81% 29.70 in 10.0 mi SSW 15.0 mph 18.4 mph N/A   Clear
5:35 AM 42.8 °F 35.4 °F 35.6 °F 76% 29.70 in 10.0 mi SSW 15.0 mph - N/A   Clear
5:55 AM 42.8 °F 35.4 °F 35.6 °F 76% 29.71 in 10.0 mi SSW 15.0 mph - N/A   Clear
6:35 AM 39.2 °F 31.2 °F 33.8 °F 81% 29.72 in 10.0 mi SSW 13.8 mph - N/A   Clear
6:55 AM 39.2 °F 31.6 °F 33.8 °F 81% 29.73 in 10.0 mi SSW 12.7 mph - N/A   Clear
7:15 AM 39.2 °F 31.6 °F 35.6 °F 87% 29.73 in 10.0 mi SSW 12.7 mph - N/A   Clear
7:35 AM 39.2 °F 31.6 °F 35.6 °F 87% 29.72 in 10.0 mi SSW 12.7 mph - N/A   Clear
7:55 AM 39.2 °F 31.2 °F 35.6 °F 87% 29.74 in 10.0 mi SSW 13.8 mph - N/A   Clear
8:15 AM 41.0 °F 33.9 °F 35.6 °F 81% 29.75 in 10.0 mi SSW 12.7 mph - N/A   Clear
8:35 AM 41.0 °F 33.9 °F 35.6 °F 81% 29.75 in 10.0 mi SSW 12.7 mph - N/A   Clear
8:55 AM 41.0 °F 32.8 °F 37.4 °F 87% 29.74 in 10.0 mi SSW 16.1 mph 20.7 mph N/A   Clear
9:15 AM 42.8 °F 34.5 °F 37.4 °F 81% 29.73 in 10.0 mi SSW 18.4 mph - N/A   Clear
9:35 AM 42.8 °F 35.1 °F 37.4 °F 81% 29.74 in 10.0 mi SSW 16.1 mph 25.3 mph N/A   Clear
9:55 AM 42.8 °F 35.4 °F 37.4 °F 81% 29.74 in 10.0 mi SSW 15.0 mph - N/A   Clear
10:15 AM 42.8 °F 34.5 °F 37.4 °F 81% 29.74 in 10.0 mi SSW 18.4 mph 25.3 mph N/A   Clear
10:35 AM 44.6 °F 36.9 °F 41.0 °F 87% 29.73 in 10.0 mi SSW 18.4 mph - N/A   Clear
10:55 AM 46.4 °F 39.0 °F 41.0 °F 81% 29.74 in 10.0 mi SSW 19.6 mph 23.0 mph N/A   Clear
11:15 AM 50.0 °F - 42.8 °F 76% 29.73 in 10.0 mi SSW 20.7 mph 24.2 mph N/A   Clear
11:55 AM 50.0 °F - 41.0 °F 71% 29.72 in 10.0 mi SW 17.3 mph 26.5 mph N/A   Clear
12:15 PM 53.6 °F - 42.8 °F 67% 29.71 in 10.0 mi SW 19.6 mph 25.3 mph N/A   Clear
12:35 PM 53.6 °F - 41.0 °F 62% 29.70 in 10.0 mi SW 18.4 mph 26.5 mph N/A   Clear
12:55 PM 53.6 °F - 41.0 °F 62% 29.68 in 10.0 mi SW 12.7 mph 24.2 mph N/A   Clear
1:15 PM 55.4 °F - 42.8 °F 63% 29.68 in 10.0 mi SW 16.1 mph 26.5 mph N/A   Clear
1:35 PM 55.4 °F - 41.0 °F 58% 29.68 in 10.0 mi SW 23.0 mph 27.6 mph N/A   Clear
2:15 PM 59.0 °F - 41.0 °F 51% 29.67 in 10.0 mi SW 20.7 mph 26.5 mph N/A   Clear
2:35 PM 59.0 °F - 37.4 °F 45% 29.68 in 10.0 mi WSW 19.6 mph 27.6 mph N/A   Clear
2:55 PM 60.8 °F - 37.4 °F 42% 29.67 in 10.0 mi SW 19.6 mph 26.5 mph N/A   Clear
3:15 PM 62.6 °F - 32.0 °F 32% 29.68 in 10.0 mi WSW 29.9 mph 41.4 mph N/A   Clear
3:35 PM 60.8 °F - 32.0 °F 34% 29.68 in 10.0 mi WSW 28.8 mph 42.6 mph N/A   Clear
3:55 PM 60.8 °F - 30.2 °F 31% 29.68 in 10.0 mi WSW 29.9 mph 40.3 mph N/A   Clear
4:15 PM 60.8 °F - 32.0 °F 34% 29.68 in 10.0 mi WSW 26.5 mph 41.4 mph N/A   Clear
4:35 PM 59.0 °F - 32.0 °F 36% 29.69 in 10.0 mi WSW 23.0 mph 33.4 mph N/A   Scattered Clouds
4:55 PM 59.0 °F - 32.0 °F 36% 29.70 in 7.0 mi WSW 24.2 mph 27.6 mph N/A   Scattered Clouds
5:15 PM 55.4 °F - 32.0 °F 41% 29.71 in 5.0 mi West 18.4 mph - N/A   Haze
5:35 PM 55.4 °F - 32.0 °F 41% 29.71 in 7.0 mi West 17.3 mph - N/A   Scattered Clouds
6:15 PM 51.8 °F - 33.8 °F 50% 29.72 in 10.0 mi West 9.2 mph - N/A   Clear
6:35 PM 50.0 °F - 33.8 °F 54% 29.73 in 10.0 mi WSW 8.1 mph - N/A   Clear
6:55 PM 50.0 °F - 33.8 °F 54% 29.74 in 10.0 mi WNW 11.5 mph - N/A   Clear
7:15 PM 50.0 °F - 32.0 °F 50% 29.75 in 10.0 mi NW 12.7 mph - N/A   Clear
7:35 PM 46.4 °F 41.5 °F 30.2 °F 53% 29.77 in 10.0 mi NW 10.4 mph - N/A   Clear
7:55 PM 44.6 °F 40.7 °F 26.6 °F 49% 29.79 in 10.0 mi WNW 6.9 mph - N/A   Clear
8:15 PM 42.8 °F 40.1 °F 28.4 °F 57% 29.80 in 10.0 mi WNW 4.6 mph - N/A   Clear
8:35 PM 41.0 °F 35.8 °F 26.6 °F 57% 29.80 in 10.0 mi NW 8.1 mph - N/A   Clear
8:55 PM 41.0 °F 35.2 °F 26.6 °F 57% 29.81 in 10.0 mi NW 9.2 mph - N/A   Clear
9:15 PM 39.2 °F 33.0 °F 24.8 °F 56% 29.80 in 10.0 mi NW 9.2 mph - N/A   Clear
9:35 PM 39.2 °F 33.0 °F 23.0 °F 52% 29.80 in 10.0 mi NW 9.2 mph - N/A   Clear
9:55 PM 39.2 °F - 24.8 °F 56% 29.83 in 10.0 mi Calm Calm - N/A   Clear
10:15 PM 35.6 °F 28.6 °F 26.6 °F 70% 29.84 in 10.0 mi WNW 9.2 mph - N/A   Clear
10:35 PM 33.8 °F 30.8 °F 23.0 °F 65% 29.84 in 10.0 mi NW 3.5 mph - N/A   Clear
10:55 PM 33.8 °F 28.6 °F 24.8 °F 70% 29.85 in 10.0 mi NW 5.8 mph - N/A   Clear
11:15 PM 33.8 °F 29.6 °F 26.6 °F 75% 29.85 in 10.0 mi NW 4.6 mph - N/A   Clear
11:35 PM 33.8 °F 30.8 °F 26.6 °F 75% 29.85 in 10.0 mi NNW 3.5 mph - N/A   Clear